Regional Weather Roundup
Issued by NWS

Home | Current Version | Previous Version | Graphics & Text | Print | Product List | Glossary On
Versions: 1 2 3 4 5 6 7 8 9 10 11 12 13 14 15 16 17 18 19 20 21 22 23 24 25 26 27 28 29 30 31 32 33 34 35 36 37 38 39 40 41 42 43 44 45 46 47 48 49 50
868
ASUS43 KMPX 281401
RWRMN
WEATHER ROUNDUP FOR MINNESOTA
NATIONAL WEATHER SERVICE TWIN CITIES/CHANHASSEN MN
800 AM CST TUE FEB 28 2017


NOTE: "FAIR" INDICATES FEW OR NO CLOUDS BELOW 12,000 FEET WITH NO
SIGNIFICANT WEATHER AND/OR OBSTRUCTIONS TO VISIBILITY. N/A MEANS
CURRENT SKY AND/OR WEATHER CONDITIONS ARE NOT AVAILABLE.

MNZ060>063-068>070-281500-
   Twin Cities Metro

CITY           SKY/WX    TMP DP  RH WIND       PRES   REMARKS
TWIN CITIES    CLOUDY    39  30  70 E9        29.73F
ST PAUL        CLOUDY    39  31  72 NE5       29.74F
CRYSTAL        CLOUDY    36  28  73 N3        29.72F
BLAINE         CLOUDY    37  32  81 N7        29.73S
LAKEVILLE      CLOUDY    36  32  87 N7        29.71F
EDEN PRAIRIE   CLOUDY    38  30  73 E7        29.70F
SOUTH ST PAUL  CLOUDY    38  31  76 CALM      29.73F
LAKE ELMO      CLOUDY    37  32  81 NE6       29.74F
$$
MNZ001>005-007-008-013>017-022>024-027-028-281500-
   Northwest Minnesota

CITY           SKY/WX    TMP DP  RH WIND       PRES   REMARKS
BEMIDJI        CLOUDY    22  18  85 NE8       29.83R WCI  12
HALLOCK        CLEAR      5   0  78 N9        29.96R WCI  -9
ROSEAU         CLEAR     -2  -6  84 N7        29.93S WCI -16
WARROAD        CLEAR      7   1  78 N9        29.94R WCI  -7
THIEF RVR FALL CLEAR     14  10  84 NE12      29.90R WCI   0
CROOKSTON      PTCLDY    16  12  86 N8        29.92S WCI   5
FOSSTON        CLOUDY    16  12  86 N12       29.86S WCI   3
DETROIT LAKES  CLEAR     23  18  80 NE7       29.81R WCI  15
MOORHEAD       PTCLDY    19  16  86 N15       29.85F WCI   5
PARK RAPIDS    CLOUDY    23  15  71 NE6       29.79R WCI  16
MAHNOMEN       CLOUDY    19  17  89 N9        29.83S WCI   9
$$
MNZ006-009>011-018-025>026-281500-
   North Central Minnesota

CITY           SKY/WX    TMP DP  RH WIND       PRES   REMARKS
BAUDETTE       CLEAR     13   8  81 NE8       29.90S WCI   2
FLAG ISLAND    CLEAR      7   1  78 N10       29.95S WCI  -8
INTL FALLS     CLOUDY    18  13  80 NE8       29.89R WCI   8
WASKISH        CLOUDY    21  18  86 NE6       29.87R WCI  14
BIG FORK       CLOUDY    23  18  80 NE7       29.84S WCI  15
LONGVILLE      CLOUDY    25  21  86 N6        29.80F WCI  18
GRAND RAPIDS   CLOUDY    25  22  88 N8        29.82S WCI  16
CRANE LAKE     CLOUDY    19  18  93 NE3       29.90R
ORR            CLOUDY    21  16  79 CALM      29.83R
COOK           CLOUDY    21  19  93 NE7       29.84S WCI  13
WALKER         CLOUDY    22  19  87 NE7       29.82R WCI  14
$$
MNZ012-019>021-037-281500-
   Northeast Minnesota

CITY           SKY/WX    TMP DP  RH WIND       PRES   REMARKS
DULUTH         CLOUDY    30  29  96 NE7       29.78S FOG     WCI  23
ELY            CLOUDY    21  19  93 NE7       29.83R WCI  13
HIBBING        CLOUDY    25  22  88 N10       29.81S WCI  15
EVELETH        CLOUDY    27  23  85 N7        29.83R WCI  19
DULUTH HARBOR  MIX PCPN  32  30  93 CALM      29.83R
TWO HARBORS    CLOUDY    32  27  80 N5        29.80R HAZE    WCI  27
SILVER BAY     CLOUDY    30  28  93 N3        29.80R
GRAND MARAIS     N/A     30  26  85 N5        29.85S WCI  25
G MARAIS ARPRT CLOUDY    23  19  86 N7        29.80S WCI  15
$$
MNZ029>031-032-039>041-046>048-054>057-064-281500-
   West Central Minnesota

CITY           SKY/WX    TMP DP  RH WIND       PRES   REMARKS
FERGUS FALLS   PTCLDY    21  16  79 N3        29.84R
WHEATON        CLOUDY    25  19  80 NW13      29.82S WCI  13
MORRIS         MIX PCPN  30  28  93 NW8       29.76R WCI  23
ALEXANDRIA     CLOUDY    30  27  88 NE10      29.76R WCI  21
ELBOW LAKE     CLOUDY    27  23  84 N6        29.78R WCI  21
WADENA         CLOUDY    25  18  74 NE9       29.77R WCI  15
GLENWOOD       LGT SNOW  32  30  93 NE6       29.75S WCI  26
APPLETON       FLURRIES  28  27  93 NW9       29.77R WCI  20
BENSON         LGT SNOW  34  30  86 N6        29.77R WCI  29
ORTONVILLE     FLURRIES  27  21  80 NW9       29.78S WCI  17
MADISON        CLOUDY    30  28  93 N16       29.76S WCI  19
WILLMAR        FAIR      36  34  93 NE8       29.74S
$$
MNZ033>034-036-042>043-049>051-058-059-281500-
   Central Minnesota

CITY           SKY/WX    TMP DP  RH WIND       PRES   REMARKS
ST CLOUD       CLOUDY    34  29  82 NE5       29.75S WCI  30
SAUK CENTRE    LGT SNOW  32  31  98 NE7       29.74F WCI  26
PAYNESVILLE    DRIZZLE   33  33 100 N5        29.75R WCI  28
AITKIN         MIX PCPN  32  27  80 NE6       29.77S WCI  26
PINE RIVER     CLOUDY    25  21  86 N9        29.82S WCI  15
BRAINERD       CLOUDY    31  27  85 NE7       29.78R FOG     WCI  24
STAPLES        CLOUDY    27  19  74 NE6       29.77S WCI  20
LONG PRAIRIE   LGT SNOW  30  30 100 N6        29.76S WCI  24
LITTLE FALLS   LGT SNOW  32  32 100 CALM      29.77S VSB 3/4
LITCHFIELD     CLOUDY    36  30  80 NE7       29.73S
BUFFALO        CLOUDY    34  28  80 N7        29.73F WCI  28
MAPLE LAKE     CLOUDY    34  31  86 N7        29.74F WCI  28
HUTCHINSON     PTCLDY    35  31  84 NE9       29.72S WCI  28
$$
MNZ037-044-045-052-053-281500-
   East Central Minnesota

CITY           SKY/WX    TMP DP  RH WIND       PRES   REMARKS
PRINCETON      CLOUDY    34  30  86 N8        29.76S WCI  27
MORA           DRIZZLE   32  28  86 CALM      29.79R
CAMBRIDGE      CLOUDY    36  27  69 N5        29.74S
RUSH CITY      CLOUDY    32  29  86 NE5       29.76S WCI  28
MOOSE LAKE     LGT SNOW  30  30 100 CALM      29.77S
HINCKLEY       CLOUDY    32  30  93 N3        29.77S
CLOQUET        LGT SNOW  30  28  93 NE5       29.79R WCI  25
MCGREGOR       CLOUDY    32  30  93 NE5       29.79S WCI  27
$$
MNZ071>073-080-081-089-090-097-098-281500-
   Southwest Minnesota

CITY           SKY/WX    TMP DP  RH WIND       PRES   REMARKS
MONTEVIDEO     CLOUDY    32  32 100 N7        29.76S FOG     WCI  26
GRANITE FALLS  MOCLDY    34  32  93 NW8       29.74S FOG     WCI  27
CANBY          CLOUDY    28  27  94 W10       29.77R FOG     WCI  19
MARSHALL       MOCLDY    31  31 100 N13       29.72S FOG     WCI  21
REDWOOD FALLS  PTCLDY    34  30  85 NE6       29.69F WCI  29
OLIVIA         CLOUDY    34  32  93 N8        29.70F WCI  27
PIPESTONE      CLEAR     32  27  80 NE12      29.65S HAZE    WCI  23
WINDOM         CLOUDY    30  30 100 N6        29.69S FOG     WCI  24
WORTHINGTON    CLOUDY    31  30  96 N8        29.68F FOG     WCI  23
JACKSON        CLOUDY    32  30  93 VRB9      29.66F WCI  24
TRACY          CLOUDY    31  31  99 N8        29.70F FOG     WCI  24
SLAYTON        FOG       29  29  99 N9        29.68F VSB 1   WCI  21
$$
MNZ065>067-074>077-082>085-091>093-281500-
   South Central Minnesota

CITY           SKY/WX    TMP DP  RH WIND       PRES   REMARKS
MANKATO          N/A     34  31  88 NE12      29.70S WCI  25
NEW ULM        CLOUDY    36  30  80 E7        29.69F
ST JAMES       CLOUDY    34  30  86 CALM      29.70S
FAIRMONT       CLOUDY    32  31  96 N10       29.68F WCI  24
GLENCOE        MOSUNNY   35  32  88 NE5       29.70F WCI  31
FARIBAULT      PTSUNNY   34  32  93 N3        29.71S
OWATONNA       CLOUDY    34  30  86 N9        29.69S WCI  26
WASECA         CLOUDY    32  30  93 N9        29.70F WCI  24
ALBERT LEA     CLOUDY    34  34 100 CALM      29.66S FOG
$$
MNZ078>079-086>088-094>096-281500-
   Southeast Minnesota

CITY           SKY/WX    TMP DP  RH WIND       PRES   REMARKS
ROCHESTER      PTSUNNY   35  35 100 E8        29.67S FOG     WCI  29
RED WING       CLOUDY    39  30  70 N3        29.72R
STANTON        CLOUDY    35  31  88 NE5       29.70S WCI  30
WINONA         CLOUDY    37  36  93 SE3       29.71S
AUSTIN         PTSUNNY   36  34  93 E7        29.65F FOG
PRESTON        CLOUDY    36  35  95 E5        29.67F FOG
$$
ABBREVIATIONS USED IN REMARKS
   TC - TEMPERATURES IN CELSIUS
  WCI - WIND CHILL INDEX
   HX - HEAT INDEX
  VSB - VISIBILITY
$$




USA.gov is the U.S. government's official web portal to all federal, state and local government web resources and services.